Regional Weather Roundup
Issued by NWS Northern Indiana

Home | Current Version | Previous Version | Text Only | Print | Product List | Glossary On
Versions: 1 2 3 4 5 6 7 8 9 10 11 12 13 14 15 16 17 18 19 20 21 22 23 24 25 26 27 28 29 30 31 32 33 34 35 36 37 38 39 40 41 42 43 44 45 46 47 48 49 50
000
ASUS43 KIWX 281210
RWRIWX

KIWX WEATHER ROUNDUP
NATIONAL WEATHER SERVICE NORTHERN INDIANA
800 AM EDT SAT MAY 28 2016

NOTE: "FAIR" INDICATES FEW OR NO CLOUDS BELOW 12,000 FEET WITH NO
SIGNIFICANT WEATHER AND/OR OBSTRUCTIONS TO VISIBILITY.

* THESE STATIONS ARE NOT UNDER NWS QUALITY CONTROL. THEY ALSO MAY NOT
  REPORT WEATHER SUCH AS PRECIPITATION OR FOG.

INZ001>027-281300-
NORTHERN INDIANA

CITY           SKY/WX    TMP DP  RH WIND       PRES   REMARKS
GARY*          PTSUNNY   73  70  88 S10G23    29.90R
VALPARAISO     CLOUDY    72  64  76 S9        29.94R
6HR MIN TEMP:  68; 6HR MAX TEMP:  72;

MICHIGAN CITY* CLOUDY    72  64  78 S9        29.93S
LAPORTE*       CLOUDY    73  66  78 S12       29.95R
6HR MIN TEMP:  70; 6HR MAX TEMP:  74;

KNOX*          CLOUDY    72  55  56 S12G18    29.95R
SOUTH BEND     CLOUDY    74  63  68 S18       29.95R
6HR MIN TEMP:  70; 6HR MAX TEMP:  74;

ELKHART*       CLOUDY    73  68  83 S7        29.97
GOSHEN         CLOUDY    73  63  70 S12       29.97R
6HR MIN TEMP:  70; 6HR MAX TEMP:  74; 6HR PCP: TRACE;

MONTICELLO*    CLOUDY    74  61  65 S8        29.96R
6HR MIN TEMP:  71; 6HR MAX TEMP:  74;

LOGANSPORT*    CLOUDY    72  64  78 S9        29.99R
ROCHESTER*     CLOUDY    77  64  65 S8        29.98S
WARSAW*        CLOUDY    72  64  78 S6        29.99R
ANGOLA*          N/A     72  64  78 S6        30.00S
FORT WAYNE     CLOUDY    72  64  76 S9        30.01R
6HR MIN TEMP:  70; 6HR MAX TEMP:  72;

HUNTINGTON*    CLOUDY   N/A N/A N/A S7        30.00S
PERU/GRISSOM   CLOUDY    73  65  76 S12       29.98R
6HR MIN TEMP:  72; 6HR MAX TEMP:  74;

MARION*        CLOUDY    72  64  75 S9        30.01S HAZE
6HR MIN TEMP:  -1; 6HR MAX TEMP:  86;


$$
INZ028>050-281300-
CENTRAL INDIANA

CITY           SKY/WX    TMP DP  RH WIND       PRES   REMARKS
LAFAYETTE      CLOUDY    73  64  73 S6        29.96R
6HR MIN TEMP:  69; 6HR MAX TEMP:  74;

KOKOMO*        CLOUDY    72  63  73 S10       29.99S
6HR MIN TEMP:  72; 6HR MAX TEMP:  73;

MUNCIE*        CLOUDY    73  64  73 S9        30.03R
6HR MIN TEMP:  72; 6HR MAX TEMP:  75; 6HR PCP: TRACE;

INDIANAPOLIS   CLOUDY    72  65  78 S12       29.99R
6HR MIN TEMP:  71; 6HR MAX TEMP:  74; 6HR PCP: TRACE;


$$
MIZ043>046-050>051-056>058-064>065-071>073-077>080-281300-
SOUTHWEST LOWER MICHIGAN

CITY           SKY/WX    TMP DP  RH WIND       PRES   REMARKS
BATTLE CREEK   CLOUDY    69  65  86 S8        29.99R
6HR MIN TEMP:  67; 6HR MAX TEMP:  73; 6HR PCP: TRACE;

BENTON HARBOR  CLOUDY    74  63  68 S12G20    29.92S
6HR MIN TEMP:  69; 6HR MAX TEMP:  74;

COLDWATER*     CLOUDY    72  64  75 S6        30.00R
6HR MIN TEMP:  68; 6HR MAX TEMP:  73;

HILLSDALE*     PTSUNNY   71  61  71 S7        30.02S
6HR MIN TEMP:  67; 6HR MAX TEMP:  73;

HOLLAND        CLOUDY    70  63  78 S9        29.93R
6HR MIN TEMP:  69; 6HR MAX TEMP:  70;

GRAND RAPIDS   CLOUDY    71  63  75 S8        29.95S
6HR MIN TEMP:  68; 6HR MAX TEMP:  71;

KALAMAZOO      CLOUDY    73  63  70 S8        29.97R
6HR MIN TEMP:  70; 6HR MAX TEMP:  74;

STURGIS*       CLOUDY    72  65  79 S9        29.98S
6HR MIN TEMP:  69; 6HR MAX TEMP:  73;

THREE RIVERS*  FAIR      72  64  75 S8        29.97S
6HR MIN TEMP:  69; 6HR MAX TEMP:  73;


$$
OHZ001>008-015>018-024>025-281300-
NORTHWEST OHIO

CITY           SKY/WX    TMP DP  RH WIND       PRES   REMARKS
WAUSEON*         N/A     73  73 100 S9        30.02S
DEFIANCE       PTSUNNY   75  63  66 S8        30.02R
6HR MIN TEMP:  70; 6HR MAX TEMP:  75;

FINDLAY        SUNNY     73  62  68 S10       30.04R
6HR MIN TEMP:  68; 6HR MAX TEMP:  73;

TOLEDO EXPRESS MOSUNNY   70  63  78 S5        30.03R
6HR MIN TEMP:  64; 6HR MAX TEMP:  73;

TOLEDO METCALF MOSUNNY   72  63  73 S9        30.04R
6HR MIN TEMP:  66; 6HR MAX TEMP:  75;

LIMA           SUNNY     72  64  76 S10       30.05R
6HR MIN TEMP:  67; 6HR MAX TEMP:  72;


$$
AND FOR LAKE MICHIGAN COASTAL AND OPEN LAKE BUOY OBSERVATIONS

STATION/POSITION TEMP    WIND        PRES    VSBY  WAVE
                 AIR SEA DIR/SP/G                  HT/PER
                 (F)     (DEG/KT/KT) (MB)    (MI)  (FT/S)
CALUMET HARBOR    72     180/ 12/ 20 1011.2R
MICHIGAN CITY     72     160/ 12/ 16   N/A
BURNS HARBOR      71     190/ 10/ 19 1012.9R
SAINT JOSEPH      74     160/  6/ 13 1013.9S
SOUTH LAKE BUOY   58 50  150/ 14/ 16 1011.1F         1/ 3
4 MI NW BRIDGMAN  69 61  170/ 14/ 17   N/A           1/ 3
MICHIGAN CITY     69 58  190/ 14/ 17   N/A           1/ 2

$$
&&




USA.gov is the U.S. government's official web portal to all federal, state and local government web resources and services.